JAL500 RJCC-RJTT

Flight info

Callsign JAL500
Flight time 1h 26m
Altitude 40000
Route TOBBY Y10 GODIN
Aircraft A359/H-SDE2E3GHIJ3J4J5LM1ORWXY/LB1D1

Departure

Time 2026-02-17 04:25
Airport New Chitose Airport (RJCC)

Arrival

Time 2026-02-17 05:51
Airport Tokyo Haneda International Airport (RJTT)
Time Latitude Longitude Altitude Speed Heading
2026-02-17 03:34 42.78617 141.68251 90 ft 0 kts 294°
2026-02-17 03:34 42.78617 141.68252 90 ft 0 kts 294°
2026-02-17 03:49 42.78617 141.68253 85 ft 0 kts 294°
2026-02-17 04:05 42.78617 141.68254 85 ft 0 kts 294°
2026-02-17 04:14 42.78616 141.68255 85 ft 1 kts 294°
2026-02-17 04:15 42.78602 141.68297 88 ft 3 kts 294°
2026-02-17 04:15 42.78595 141.68319 89 ft 2 kts 295°
2026-02-17 04:15 42.78587 141.68339 87 ft 3 kts 317°
2026-02-17 04:15 42.78576 141.68351 89 ft 3 kts 348°
2026-02-17 04:16 42.78559 141.68353 89 ft 3 kts 11°
2026-02-17 04:16 42.78539 141.68347 88 ft 3 kts 18°
2026-02-17 04:16 42.78530 141.68343 89 ft 0 kts 18°
2026-02-17 04:21 42.78534 141.68345 90 ft 1 kts 18°
2026-02-17 04:21 42.78550 141.68352 87 ft 4 kts 18°
2026-02-17 04:22 42.78593 141.68371 89 ft 9 kts 18°
2026-02-17 04:22 42.78661 141.68400 89 ft 11 kts 12°
2026-02-17 04:22 42.78746 141.68412 88 ft 14 kts
2026-02-17 04:23 42.78797 141.68474 87 ft 7 kts 74°
2026-02-17 04:23 42.78807 141.68550 87 ft 10 kts 81°
2026-02-17 04:23 42.78819 141.68651 87 ft 12 kts 81°
2026-02-17 04:23 42.78830 141.68742 88 ft 11 kts 81°
2026-02-17 04:24 42.78808 141.68812 90 ft 8 kts 150°
2026-02-17 04:24 42.78781 141.68820 86 ft 0 kts 171°
2026-02-17 04:25 42.78607 141.68854 88 ft 64 kts 172°
2026-02-17 04:25 42.77918 141.68974 88 ft 133 kts 173°
2026-02-17 04:25 42.76811 141.69170 311 ft 173 kts 169°
2026-02-17 04:25 42.75652 141.69387 1383 ft 168 kts 171°
2026-02-17 04:26 42.74496 141.69703 2255 ft 174 kts 171°
2026-02-17 04:26 42.73235 141.69776 2737 ft 192 kts 189°
2026-02-17 04:26 42.71825 141.69398 3063 ft 220 kts 195°
2026-02-17 04:27 42.68515 141.68869 4314 ft 253 kts 182°
2026-02-17 04:27 42.66731 141.68947 5172 ft 259 kts 180°
2026-02-17 04:27 42.64921 141.69085 6039 ft 263 kts 180°
2026-02-17 04:27 42.63077 141.69245 6888 ft 267 kts 180°
2026-02-17 04:28 42.61212 141.69416 7715 ft 271 kts 180°
2026-02-17 04:28 42.59319 141.69593 8568 ft 274 kts 180°
2026-02-17 04:28 42.57402 141.69773 9439 ft 278 kts 180°
2026-02-17 04:28 42.55462 141.69957 10265 ft 282 kts 180°
2026-02-17 04:29 42.53465 141.70143 10814 ft 296 kts 180°
2026-02-17 04:29 42.51337 141.70338 11148 ft 316 kts 180°
2026-02-17 04:29 42.49081 141.70550 11483 ft 334 kts 180°
2026-02-17 04:29 42.46732 141.70781 12026 ft 343 kts 179°
2026-02-17 04:30 42.44334 141.71026 12707 ft 348 kts 179°
2026-02-17 04:30 42.41901 141.71271 13380 ft 352 kts 179°
2026-02-17 04:30 42.39441 141.71513 14060 ft 356 kts 179°
2026-02-17 04:31 42.34447 141.71994 15316 ft 363 kts 180°
2026-02-17 04:31 42.31924 141.72233 15940 ft 366 kts 180°
2026-02-17 04:31 42.29367 141.72475 16577 ft 369 kts 180°
2026-02-17 04:31 42.26829 141.72714 17197 ft 372 kts 180°
2026-02-17 04:32 42.24241 141.72961 17826 ft 375 kts 180°
2026-02-17 04:32 42.21632 141.73212 18433 ft 378 kts 180°
2026-02-17 04:32 42.18996 141.73457 18960 ft 381 kts 180°
2026-02-17 04:32 42.16345 141.73704 19496 ft 383 kts 180°
2026-02-17 04:33 42.13677 141.73953 20031 ft 386 kts 180°
2026-02-17 04:33 42.10991 141.74205 20561 ft 388 kts 180°
2026-02-17 04:33 42.08279 141.74459 21083 ft 391 kts 180°
2026-02-17 04:33 42.05555 141.74714 21609 ft 393 kts 181°
2026-02-17 04:34 42.02816 141.74969 22128 ft 396 kts 181°
2026-02-17 04:34 42.00057 141.75228 22637 ft 399 kts 181°
2026-02-17 04:34 41.97284 141.75487 23142 ft 401 kts 181°
2026-02-17 04:35 41.91679 141.76012 24096 ft 406 kts 181°
2026-02-17 04:35 41.88843 141.76286 24518 ft 409 kts 181°
2026-02-17 04:35 41.85999 141.76555 24959 ft 411 kts 182°
2026-02-17 04:35 41.83138 141.76820 25405 ft 413 kts 182°
2026-02-17 04:36 41.80267 141.77083 25861 ft 415 kts 182°
2026-02-17 04:36 41.77378 141.77348 26325 ft 417 kts 183°
2026-02-17 04:36 41.74475 141.77615 26794 ft 420 kts 183°
2026-02-17 04:36 41.71542 141.77886 27281 ft 422 kts 183°
2026-02-17 04:37 41.68596 141.78157 27779 ft 425 kts 184°
2026-02-17 04:37 41.65636 141.78431 28277 ft 428 kts 184°
2026-02-17 04:37 41.62662 141.78706 28770 ft 431 kts 184°
2026-02-17 04:37 41.59662 141.78982 29257 ft 433 kts 184°
2026-02-17 04:38 41.56682 141.79257 29723 ft 437 kts 185°
2026-02-17 04:38 41.53643 141.79532 30188 ft 438 kts 185°
2026-02-17 04:38 41.50574 141.79506 30572 ft 433 kts 193°
2026-02-17 04:39 41.44731 141.78137 31325 ft 429 kts 201°
2026-02-17 04:39 41.41820 141.77224 31696 ft 431 kts 202°
2026-02-17 04:39 41.38902 141.76253 32063 ft 433 kts 202°
2026-02-17 04:39 41.35978 141.75259 32390 ft 436 kts 202°
2026-02-17 04:40 41.33032 141.74261 32722 ft 438 kts 202°
2026-02-17 04:40 41.30061 141.73269 33049 ft 441 kts 202°
2026-02-17 04:40 41.27076 141.72284 33360 ft 444 kts 202°
2026-02-17 04:40 41.24065 141.71300 33658 ft 446 kts 202°
2026-02-17 04:41 41.21041 141.70319 33942 ft 449 kts 202°
2026-02-17 04:41 41.18002 141.69337 34223 ft 451 kts 202°
2026-02-17 04:41 41.14943 141.68352 34486 ft 452 kts 202°
2026-02-17 04:41 41.11889 141.67371 34811 ft 452 kts 202°
2026-02-17 04:42 41.08832 141.66389 35154 ft 451 kts 202°
2026-02-17 04:42 41.05779 141.65409 35480 ft 451 kts 202°
2026-02-17 04:42 41.02723 141.64426 35789 ft 451 kts 202°
2026-02-17 04:43 40.96616 141.62462 36409 ft 452 kts 202°
2026-02-17 04:43 40.93565 141.61483 36723 ft 452 kts 202°
2026-02-17 04:43 40.90510 141.60503 37041 ft 452 kts 202°
2026-02-17 04:43 40.87452 141.59523 37343 ft 452 kts 202°
2026-02-17 04:44 40.84388 141.58542 37651 ft 452 kts 202°
2026-02-17 04:44 40.81336 141.57566 37963 ft 452 kts 202°
2026-02-17 04:44 40.78282 141.56590 38253 ft 452 kts 202°
2026-02-17 04:44 40.75231 141.55616 38545 ft 452 kts 202°
2026-02-17 04:45 40.72164 141.54639 38818 ft 452 kts 202°
2026-02-17 04:45 40.69103 141.53664 39035 ft 453 kts 202°
2026-02-17 04:45 40.66042 141.52689 39250 ft 453 kts 202°
2026-02-17 04:45 40.62986 141.51717 39459 ft 453 kts 202°
2026-02-17 04:46 40.59920 141.50743 39670 ft 453 kts 202°
2026-02-17 04:46 40.56856 141.49770 39879 ft 453 kts 202°
2026-02-17 04:46 40.53791 141.48798 40077 ft 453 kts 202°
2026-02-17 04:47 40.47694 141.46867 40144 ft 453 kts 202°
2026-02-17 04:47 40.41527 141.44918 40138 ft 453 kts 202°
2026-02-17 04:48 40.35434 141.42996 40136 ft 453 kts 202°
2026-02-17 04:48 40.29303 141.41065 40142 ft 453 kts 202°
2026-02-17 04:49 40.23171 141.39138 40136 ft 453 kts 202°
2026-02-17 04:49 40.17042 141.37216 40140 ft 453 kts 203°
2026-02-17 04:50 40.10912 141.35298 40139 ft 453 kts 203°
2026-02-17 04:50 40.04790 141.33385 40141 ft 452 kts 203°
2026-02-17 04:51 39.96644 141.30832 40144 ft 452 kts 203°
2026-02-17 04:51 39.90541 141.28846 40147 ft 451 kts 203°
2026-02-17 04:52 39.84456 141.26847 40148 ft 451 kts 203°
2026-02-17 04:52 39.78329 141.24833 40151 ft 451 kts 203°
2026-02-17 04:53 39.72275 141.22850 40152 ft 451 kts 204°
2026-02-17 04:53 39.66196 141.20863 40154 ft 451 kts 204°
2026-02-17 04:54 39.60116 141.18881 40154 ft 450 kts 204°
2026-02-17 04:55 39.50999 141.15914 40155 ft 451 kts 204°
2026-02-17 04:55 39.44913 141.13938 40164 ft 450 kts 204°
2026-02-17 04:56 39.38829 141.12009 40155 ft 451 kts 203°
2026-02-17 04:56 39.32708 141.10174 40154 ft 451 kts 202°
2026-02-17 04:57 39.26587 141.08357 40155 ft 451 kts 203°
2026-02-17 04:57 39.20465 141.06526 40159 ft 451 kts 203°
2026-02-17 04:58 39.14360 141.04694 40160 ft 451 kts 203°
2026-02-17 04:58 39.08250 141.02860 40158 ft 451 kts 203°
2026-02-17 04:59 38.99083 141.00115 40167 ft 451 kts 203°
2026-02-17 04:59 38.92970 140.98290 40163 ft 451 kts 203°
2026-02-17 05:00 38.86850 140.96466 40158 ft 452 kts 203°
2026-02-17 05:00 38.80721 140.94644 40162 ft 452 kts 203°
2026-02-17 05:01 38.74599 140.92829 40160 ft 452 kts 203°
2026-02-17 05:01 38.68472 140.91017 40166 ft 452 kts 204°
2026-02-17 05:02 38.62354 140.89203 40164 ft 452 kts 203°
2026-02-17 05:03 38.53161 140.86490 40163 ft 452 kts 203°
2026-02-17 05:03 38.47027 140.84684 40166 ft 452 kts 204°
2026-02-17 05:04 38.40903 140.82879 40164 ft 452 kts 204°
2026-02-17 05:04 38.34778 140.81079 40159 ft 452 kts 204°
2026-02-17 05:05 38.28645 140.79269 40219 ft 451 kts 204°
2026-02-17 05:05 38.22589 140.77425 40156 ft 450 kts 204°
2026-02-17 05:06 38.16499 140.75602 40154 ft 450 kts 204°
2026-02-17 05:06 38.10397 140.73806 40158 ft 450 kts 204°
2026-02-17 05:07 38.01250 140.71144 40164 ft 450 kts 204°
2026-02-17 05:07 37.95148 140.69375 40159 ft 449 kts 204°
2026-02-17 05:08 37.89049 140.67610 40156 ft 449 kts 204°
2026-02-17 05:08 37.82955 140.65848 40156 ft 449 kts 204°
2026-02-17 05:09 37.76874 140.64091 40155 ft 448 kts 204°
2026-02-17 05:09 37.70796 140.62336 40151 ft 448 kts 204°
2026-02-17 05:10 37.64687 140.60594 40131 ft 453 kts 204°
2026-02-17 05:10 37.61610 140.59724 39907 ft 454 kts 204°
2026-02-17 05:11 37.55457 140.57985 38680 ft 454 kts 204°
2026-02-17 05:11 37.52375 140.57115 37929 ft 453 kts 204°
2026-02-17 05:11 37.49300 140.56259 37228 ft 452 kts 205°
2026-02-17 05:11 37.46283 140.55419 36563 ft 450 kts 205°
2026-02-17 05:12 37.43236 140.54563 35907 ft 448 kts 206°
2026-02-17 05:12 37.40214 140.53711 35387 ft 442 kts 206°
2026-02-17 05:12 37.37225 140.52865 34874 ft 438 kts 207°
2026-02-17 05:12 37.34273 140.52027 34353 ft 433 kts 207°
2026-02-17 05:13 37.31348 140.51193 33805 ft 429 kts 208°
2026-02-17 05:13 37.28457 140.50355 33265 ft 424 kts 208°
2026-02-17 05:13 37.25594 140.49518 32764 ft 419 kts 208°
2026-02-17 05:13 37.22774 140.48699 32262 ft 414 kts 208°
2026-02-17 05:14 37.19988 140.47883 31785 ft 409 kts 208°
2026-02-17 05:14 37.17221 140.47071 31303 ft 406 kts 208°
2026-02-17 05:14 37.14483 140.46277 30819 ft 402 kts 208°
2026-02-17 05:15 37.09081 140.44721 29847 ft 396 kts 207°
2026-02-17 05:15 37.06415 140.43959 29372 ft 392 kts 207°
2026-02-17 05:15 37.03765 140.43206 28908 ft 387 kts 207°
2026-02-17 05:15 37.01151 140.42466 28447 ft 383 kts 207°
2026-02-17 05:16 36.98570 140.41735 27995 ft 378 kts 206°
2026-02-17 05:16 36.96018 140.41013 27539 ft 374 kts 206°
2026-02-17 05:16 36.93489 140.40298 27091 ft 371 kts 206°
2026-02-17 05:16 36.90987 140.39595 26645 ft 367 kts 206°
2026-02-17 05:17 36.88505 140.38895 26188 ft 364 kts 205°
2026-02-17 05:17 36.86049 140.38201 25742 ft 362 kts 205°
2026-02-17 05:17 36.83604 140.37509 25286 ft 359 kts 205°
2026-02-17 05:17 36.81179 140.36821 24842 ft 356 kts 204°
2026-02-17 05:18 36.78776 140.36142 24376 ft 354 kts 204°
2026-02-17 05:18 36.76378 140.35466 23930 ft 352 kts 204°
2026-02-17 05:18 36.73996 140.34797 23430 ft 350 kts 203°
2026-02-17 05:19 36.69203 140.33721 22485 ft 348 kts 199°
2026-02-17 05:19 36.66818 140.33283 22030 ft 345 kts 199°
2026-02-17 05:19 36.64453 140.32855 21583 ft 341 kts 199°
2026-02-17 05:19 36.62114 140.32425 21133 ft 339 kts 199°
2026-02-17 05:20 36.59794 140.31986 20695 ft 336 kts 199°
2026-02-17 05:20 36.57500 140.31538 20259 ft 333 kts 200°
2026-02-17 05:20 36.55217 140.31085 19823 ft 331 kts 200°
2026-02-17 05:20 36.52949 140.30633 19379 ft 329 kts 200°
2026-02-17 05:21 36.50697 140.30183 18957 ft 327 kts 199°
2026-02-17 05:21 36.46221 140.29288 18045 ft 325 kts 199°
2026-02-17 05:21 36.43991 140.28844 17599 ft 322 kts 199°
2026-02-17 05:22 36.41790 140.28406 17175 ft 320 kts 199°
2026-02-17 05:22 36.39593 140.27973 16742 ft 318 kts 199°
2026-02-17 05:22 36.37416 140.27544 16311 ft 316 kts 199°
2026-02-17 05:23 36.33096 140.26674 15442 ft 313 kts 199°
2026-02-17 05:23 36.30945 140.26241 15038 ft 312 kts 199°
2026-02-17 05:23 36.28807 140.25814 14614 ft 311 kts 198°
2026-02-17 05:23 36.26672 140.25398 14199 ft 310 kts 198°
2026-02-17 05:24 36.24546 140.24976 13752 ft 309 kts 198°
2026-02-17 05:24 36.22424 140.24547 13230 ft 310 kts 198°
2026-02-17 05:24 36.20297 140.24122 12833 ft 309 kts 197°
2026-02-17 05:24 36.18145 140.23691 12632 ft 316 kts 197°
2026-02-17 05:25 36.15974 140.23256 12421 ft 317 kts 197°
2026-02-17 05:25 36.13801 140.22824 12192 ft 316 kts 197°
2026-02-17 05:25 36.11624 140.22394 11963 ft 316 kts 197°
2026-02-17 05:25 36.09457 140.21965 11739 ft 315 kts 196°
2026-02-17 05:26 36.07297 140.21537 11520 ft 314 kts 196°
2026-02-17 05:26 36.05140 140.21109 11302 ft 314 kts 196°
2026-02-17 05:26 36.02985 140.20689 11081 ft 314 kts 195°
2026-02-17 05:27 35.98625 140.20428 10724 ft 318 kts 187°
2026-02-17 05:27 35.96373 140.20398 10560 ft 317 kts 187°
2026-02-17 05:27 35.94195 140.20369 10399 ft 316 kts 187°
2026-02-17 05:27 35.92041 140.20343 10251 ft 303 kts 187°
2026-02-17 05:28 35.89949 140.20315 10086 ft 291 kts 187°
2026-02-17 05:28 35.87994 140.20285 9918 ft 281 kts 188°
2026-02-17 05:28 35.86046 140.20248 9758 ft 279 kts 188°
2026-02-17 05:28 35.84103 140.20209 9606 ft 279 kts 187°
2026-02-17 05:29 35.82164 140.20173 9472 ft 279 kts 187°
2026-02-17 05:29 35.80853 140.20150 9363 ft 278 kts 187°
2026-02-17 05:29 35.79415 140.20125 9246 ft 278 kts 187°
2026-02-17 05:29 35.77511 140.20101 9108 ft 278 kts 186°
2026-02-17 05:30 35.75576 140.20174 8952 ft 278 kts 184°
2026-02-17 05:30 35.73642 140.20284 8816 ft 277 kts 183°
2026-02-17 05:30 35.71716 140.20389 8670 ft 277 kts 183°
2026-02-17 05:31 35.67914 140.20583 8428 ft 265 kts 183°
2026-02-17 05:31 35.66103 140.20674 8306 ft 255 kts 183°
2026-02-17 05:31 35.64358 140.20760 8189 ft 246 kts 183°
2026-02-17 05:31 35.62684 140.20841 8114 ft 236 kts 183°
2026-02-17 05:32 35.61074 140.20901 8007 ft 227 kts 184°
2026-02-17 05:32 35.59515 140.20926 7996 ft 224 kts 184°
2026-02-17 05:32 35.57959 140.20944 7996 ft 223 kts 184°
2026-02-17 05:32 35.56403 140.20960 7993 ft 223 kts 184°
2026-02-17 05:33 35.54849 140.20974 7993 ft 224 kts 184°
2026-02-17 05:33 35.53292 140.20987 7992 ft 224 kts 184°
2026-02-17 05:33 35.52261 140.20997 7992 ft 224 kts 184°
2026-02-17 05:33 35.50178 140.21156 7987 ft 228 kts 172°
2026-02-17 05:34 35.49189 140.21640 7988 ft 235 kts 154°
2026-02-17 05:34 35.47966 140.23016 7991 ft 241 kts 136°
2026-02-17 05:34 35.46906 140.24616 7994 ft 243 kts 133°
2026-02-17 05:35 35.44811 140.27883 8001 ft 243 kts 134°
2026-02-17 05:35 35.43756 140.29504 7992 ft 243 kts 134°
2026-02-17 05:35 35.42618 140.31019 8004 ft 237 kts 146°
2026-02-17 05:35 35.41279 140.32060 8007 ft 224 kts 157°
2026-02-17 05:36 35.39898 140.32926 7990 ft 222 kts 159°
2026-02-17 05:36 35.38509 140.33766 7989 ft 223 kts 159°
2026-02-17 05:36 35.37122 140.34604 7997 ft 223 kts 159°
2026-02-17 05:36 35.35722 140.35401 7988 ft 221 kts 165°
2026-02-17 05:37 35.34239 140.35770 7996 ft 215 kts 180°
2026-02-17 05:37 35.32762 140.35865 7997 ft 213 kts 184°
2026-02-17 05:37 35.31271 140.35917 7993 ft 213 kts 184°
2026-02-17 05:37 35.29788 140.35968 7995 ft 213 kts 184°
2026-02-17 05:38 35.28310 140.36000 7995 ft 211 kts 187°
2026-02-17 05:38 35.26902 140.35650 7990 ft 205 kts 207°
2026-02-17 05:38 35.25782 140.34673 7997 ft 199 kts 230°
2026-02-17 05:39 35.25015 140.31633 7841 ft 185 kts 274°
2026-02-17 05:39 35.25410 140.30141 7775 ft 186 kts 290°
2026-02-17 05:39 35.25918 140.28686 7684 ft 185 kts 286°
2026-02-17 05:39 35.26304 140.27185 7587 ft 184 kts 282°
2026-02-17 05:40 35.26630 140.25676 7484 ft 184 kts 281°
2026-02-17 05:40 35.26936 140.24158 7410 ft 184 kts 280°
2026-02-17 05:40 35.27232 140.22633 7313 ft 184 kts 279°
2026-02-17 05:40 35.27519 140.21107 7245 ft 184 kts 279°
2026-02-17 05:41 35.27803 140.19579 7146 ft 183 kts 279°
2026-02-17 05:41 35.28085 140.18059 7053 ft 184 kts 279°
2026-02-17 05:41 35.28371 140.16535 6983 ft 184 kts 279°
2026-02-17 05:41 35.28659 140.15012 6888 ft 184 kts 279°
2026-02-17 05:42 35.28947 140.13486 6781 ft 183 kts 279°
2026-02-17 05:42 35.29233 140.11967 6715 ft 183 kts 279°
2026-02-17 05:42 35.29389 140.10426 6611 ft 182 kts 266°
2026-02-17 05:43 35.28688 140.07484 6466 ft 181 kts 248°
2026-02-17 05:43 35.28223 140.06060 6372 ft 181 kts 248°
2026-02-17 05:43 35.27764 140.04649 6274 ft 181 kts 248°
2026-02-17 05:43 35.27300 140.03212 6194 ft 182 kts 248°
2026-02-17 05:44 35.26831 140.01763 6094 ft 184 kts 248°
2026-02-17 05:44 35.26441 140.00278 6002 ft 183 kts 257°
2026-02-17 05:44 35.26487 139.98740 5873 ft 186 kts 282°
2026-02-17 05:44 35.27194 139.97412 5790 ft 193 kts 315°
2026-02-17 05:45 35.28324 139.96484 5681 ft 195 kts 326°
2026-02-17 05:45 35.29503 139.95657 5472 ft 196 kts 327°
2026-02-17 05:45 35.30691 139.94814 5265 ft 198 kts 327°
2026-02-17 05:45 35.31875 139.93975 5050 ft 199 kts 328°
2026-02-17 05:46 35.33088 139.93125 4920 ft 202 kts 330°
2026-02-17 05:46 35.34311 139.92297 4667 ft 201 kts 331°
2026-02-17 05:46 35.35525 139.91444 4364 ft 201 kts 330°
2026-02-17 05:47 35.37945 139.89719 3737 ft 201 kts 332°
2026-02-17 05:47 35.40335 139.88025 3173 ft 196 kts 333°
2026-02-17 05:47 35.41508 139.87199 2896 ft 192 kts 333°
2026-02-17 05:48 35.42655 139.86389 2628 ft 188 kts 334°
2026-02-17 05:48 35.43771 139.85597 2363 ft 182 kts 333°
2026-02-17 05:48 35.44829 139.84844 2130 ft 170 kts 334°
2026-02-17 05:48 35.45825 139.84138 1882 ft 160 kts 333°
2026-02-17 05:49 35.46745 139.83480 1660 ft 149 kts 333°
2026-02-17 05:49 35.47624 139.82855 1457 ft 139 kts 333°
2026-02-17 05:49 35.48435 139.82279 1264 ft 131 kts 334°
2026-02-17 05:49 35.49212 139.81728 1119 ft 130 kts 333°
2026-02-17 05:50 35.49999 139.81169 930 ft 131 kts 333°
2026-02-17 05:50 35.50793 139.80603 735 ft 132 kts 333°
2026-02-17 05:50 35.51583 139.80030 539 ft 131 kts 332°
2026-02-17 05:51 35.53151 139.78904 201 ft 131 kts 333°
2026-02-17 05:51 35.53937 139.78352 56 ft 128 kts 334°
2026-02-17 05:51 35.54673 139.77846 27 ft 106 kts 330°
2026-02-17 05:51 35.55068 139.77564 28 ft 23 kts 329°
2026-02-17 05:52 35.55098 139.77543 28 ft 10 kts 329°
2026-02-17 05:52 35.55198 139.77496 28 ft 16 kts
2026-02-17 05:52 35.55265 139.77563 26 ft 9 kts 57°
2026-02-17 05:52 35.55301 139.77633 28 ft 10 kts 58°
2026-02-17 05:53 35.55335 139.77717 27 ft 10 kts 81°
2026-02-17 05:53 35.55301 139.77783 28 ft 10 kts 145°
2026-02-17 05:53 35.55273 139.77804 28 ft 0 kts 148°
2026-02-17 05:54 35.55268 139.77808 28 ft 2 kts 148°
2026-02-17 05:55 35.55256 139.77818 28 ft 0 kts 148°
2026-02-17 05:56 35.55230 139.77836 29 ft 6 kts 150°
2026-02-17 05:56 35.55186 139.77867 29 ft 9 kts 150°
2026-02-17 05:56 35.55125 139.77910 29 ft 12 kts 150°
2026-02-17 05:56 35.55051 139.77963 29 ft 10 kts 150°
2026-02-17 05:57 35.54994 139.78002 29 ft 10 kts 150°
2026-02-17 05:57 35.54975 139.78016 29 ft 1 kts 150°
2026-02-17 05:57 35.54970 139.78022 29 ft 1 kts 136°
2026-02-17 05:57 35.54967 139.78038 28 ft 3 kts 96°
2026-02-17 05:58 35.54978 139.78086 28 ft 7 kts 68°
2026-02-17 05:58 35.54980 139.78092 28 ft 0 kts 66°
2026-02-17 05:59 35.54994 139.78125 29 ft 6 kts 61°
2026-02-17 05:59 35.55012 139.78165 29 ft 4 kts 61°
2026-02-17 05:59 35.55022 139.78187 29 ft 2 kts 60°
2026-02-17 05:59 35.55024 139.78190 29 ft 0 kts 60°